{"data":{"norad_id":55785,"epoch":"2026-05-25T01:43:18.624576Z","epoch_age_seconds":66062,"freshness":"FRESH","line1":"1 55785U 23028AW  26145.07174334  .00000992  00000+0  90868-4 0  9996","line2":"2 55785  69.9999  12.0260 0002129 275.4955  84.5961 14.98333280178465","mean_motion":14.9833328,"eccentricity":0.0002129,"inclination_deg":69.9999,"raan_deg":12.026,"arg_perigee_deg":275.4955,"mean_anomaly_deg":84.5961,"bstar":9.0868e-5,"rev_number":17846,"period_min":96.10678873795,"perigee_km":570.56605392647,"apogee_km":573.5254417405,"semimajor_km":6950.1827478335,"source":"CELESTRAK","updated_at":"2026-05-25T13:38:17.887100Z"}}